Meath Environmental Platform

Observations for Trim Market St

Time AQI Temp °C Hum % Pres Pa CO μg/m³ H₂S μg/m³ NO μg/m³ NO₂ μg/m³ O₃ μg/m³ SO₂ μg/m³ PM1 μg/m³ PM2.5 μg/m³ PM10 μg/m³
Friday 10 July 2026
07:34 1 23.5 65 56,679 0.28 0 0 0 0 0 2.85 5.76 10.16
07:31 1 23 66 56,452 0.24 0 0 0 0 0 2.85 4.25 6.22
07:29 1 22.8 66 56,241 0.27 0 0.04 0.29 0 0 2.14 3.72 5.58
07:28 1 22.7 66 56,108 0.37 0 0 0 0 0 2.14 5.19 7.53
07:27 1 22.6 67 55,942 0.37 0 0 0.58 0 0 2.85 5.17 8.18
07:26 1 22.5 67 55,757 0.26 0 0 0.37 0 0 2.85 5.15 8.82
07:24 1 22.3 68 55,225 0.26 0 0.7 1.64 0 0 4.28 6.58 10.09
07:23 1 22.2 68 54,850 0.24 0 0.55 0.51 0 0 3.56 6.55 9.44
07:21 1 21.9 69 53,891 0.25 0 0.44 1.31 0 0 3.56 6.51 10.69
07:20 1 21.8 69 53,316 0.25 0 0.48 0.59 0 0 3.56 6 8.79
07:19 1 21.6 70 52,673 0.28 0 0 1.81 0 0 3.56 5.5 8.79
06:58 1 19.5 75 28,961 0.21 0 0 6.32 0.41 0 7.13 9.07 12.93
06:55 1 19.3 75 25,187 0.72 0 2.21 1.92 0 0 4.28 6.17 9.92
06:53 1 19.2 76 21,940 0.2 0 3.2 5.5 0.2 0 4.99 8.06 12.28
06:52 1 19.1 76 20,472 0.17 0 0 2.01 3.97 0 4.99 7.09 10.5
06:45 1 18.6 77 9,574 0.16 0 0 3.62 7.44 0 5.7 7.98 11.64
06:44 1 18.5 77 8,474 0.16 0 0.74 1.24 4.06 0 4.28 7.5 13.98
06:43 1 18.5 77 7,461 0.16 0 0 5.13 6.99 0 4.28 5.59 9.87
06:42 1 18.4 77 6,442 0.15 0 2.31 2.84 2.52 0 4.99 7.49 11.04
06:41 1 18.3 77 5,691 0.18 0 0.71 4.06 0 0 4.99 7 10.45